星链-31664 (STARLINK-31664 )

导读 | 星芒AI

STARLINK-31664 是 SpaceX 星链(Starlink)卫星互联网项目中的一颗低轨通信卫星。它属于星链计划的第三批卫星,于2023年发射,旨在为全球用户提供高速、低延迟的互联网服务。该卫星运行在约550公里高的近地轨道,配备先进通信设备,支持宽带数据传输。作为星链星座的一部分,STARLINK-31664 有助于扩大覆盖范围,提升网络性能,特别是在偏远和网络基础设施薄弱的地区。

基本信息
目录编号:
59514
目录名称:
STARLINK-31664
国际标识:
2024-073D
轨道中心:
EARTH
卫星名称:
星链-31664
卫星全名:
星链-31664 (STARLINK-31664 )
卫星状态:
已陨落 最后检测时间 2025-02-22
发射日期:
2024-04-17 UTC
国别 :
美国 (US)
星等 :
--
轨道信息
数据来源 国际轨道数据
星历时间: 2025-02-21T23:40:55+0800
轨道信息已过期258天
半长轴: 6599.586km
偏心率: 0.0006205
轨道倾角: 42.991°
近地点辐角 253.328°
升交点赤经 300.620°
平近点角 196.617°
近地点: 217.355km
远地点: 225.547km
周期: 88.927分钟
每日圈数: 16.193018
详细信息
固有亮度:
5
最大亮度:
1.5
卫星平台:
Starlink v2.0 mini
覆盖范围:
全球
运营商:
太空探索技术公司
运营商所在国:
美国
制造商(研发单位):
太空探索技术公司
制造商所在国:
美国
使用方式:
暂无
卫星简介
星链(Starlink)计划是由太空探索技术公司(SpaceX)提出的一个巨型低轨卫星互联网星座项目,计划在2019年至2024年间在太空搭建由约1.2万颗卫星组成的“星链”网络,其中1584颗将部署在地球上空550千米处的近地轨道,并从2020年开始工作。该卫星仍在工作。